Location: Omaha
(41.2590°N, 95.9380°W)
Time: 06:09:50
(UTC-05:00)

OTV 5 (USA 277) - Pass Details

Date: 09 October 2017
Orbit: 404 x 417 km, 43.0° (Epoch: 07 September)

Event Time Altitude Azimuth Distance (km) Brightness Sun altitude
Rises 21:06:56 0° 248° (WSW) 2,348 ? -26.0°
Reaches altitude 10° 21:09:02 10° 247° (WSW) 1,486 ? -26.4°
Enters shadow 21:10:06 19° 245° (WSW) 1,064 ? -26.6°
